[[{"header":{"parameterUnit":"m.s-1","parameterCategory":2,"la1":30.2991,"la2":30.254,"lo1":-89.0895,"lo2":-89.0444,"dy":0.0017,"dx":0.0017,"nx":28,"ny":28,"refTime":"2023-10-20T09:00:00:Z","depth":"0","parameterNumber":2,"parameterNumberName":"U-component_of_CURRENTS"},"data":[0,0,0,0,0,0,0,0,0,0,0,0,0,0,0,0,0,0,0,0,0,0,0,0,0,0,0,0,0,0,0,0,0,0,0,0,0,0,0,0,0,0,0,0,0,0,0,0,0,0,0,0,0,0,0,0,0,0,-0.1652,-0.1655,0,-0.1864,-0.1866,-0.1868,-0.1835,-0.1832,-0.1829,-0.1826,-0.1798,-0.18,-0.1802,0,0,0,0,0,0,0,0,0,0,0,0,0,-0.138,-0.1383,-0.1652,-0.1655,-0.1658,-0.1864,-0.1866,-0.1868,-0.1835,-0.1832,-0.1828,-0.1825,-0.1797,-0.1799,-0.1802,0,0,0,0,0,0,0,0,0,0,0,0,0,-0.1528,-0.1384,-0.1651,-0.1672,-0.1676,-0.1863,-0.1866,-0.1869,-0.1836,-0.1831,-0.1827,-0.1823,-0.1796,-0.1799,-0.1802,-0.191,0,0,-0.1811,-0.1813,0,0,0,0,0,0,0,0,-0.1519,-0.1537,-0.1666,-0.1671,-0.1676,-0.1825,-0.176,-0.1873,-0.1837,-0.1768,-0.1826,-0.1821,-0.1792,-0.1796,-0.1839,-0.1908,-0.1907,-0.1812,-0.1813,-0.1815,-0.1816,0,0,0,0,0,0,0,-0.1509,-0.1529,-0.1728,-0.167,-0.1676,-0.1727,-0.174,-0.1783,-0.1792,-0.1774,-0.1773,-0.181,-0.1792,-0.1836,-0.1837,-0.1907,-0.1812,-0.1814,-0.1816,-0.1817,-0.1957,-0.1959,0,0,0,0,0,0,-0.1495,-0.1519,-0.1722,-0.1736,-0.1593,-0.1735,-0.175,-0.1776,-0.1797,-0.18,-0.1814,-0.1808,-0.1833,-0.1834,-0.1835,-0.1884,-0.1815,-0.1818,-0.1819,-0.1955,-0.1957,-0.1959,0,0,0,0,0,0,-0.1488,-0.151,-0.1713,-0.1638,-0.1668,-0.1744,-0.1773,-0.1782,-0.1817,-0.1832,-0.1827,-0.1837,-0.1829,-0.1831,-0.1873,-0.1885,-0.1819,-0.1822,-0.1953,-0.1956,-0.1958,-0.2032,0,0,0,0,0,0,-0.1479,-0.1506,-0.1511,-0.1637,-0.1672,-0.1825,-0.1779,-0.179,-0.1851,-0.1844,-0.1852,-0.1845,-0.1826,-0.1869,-0.1876,-0.1888,-0.1824,-0.195,-0.1954,-0.1957,-0.2027,-0.2037,-0.2045,0,0,0,0,0,-0.1468,-0.1505,-0.151,-0.1535,-0.1678,-0.1829,-0.1852,-0.1885,-0.1856,-0.1894,-0.189,-0.1844,-0.1894,-0.1875,-0.1882,-0.1895,-0.1949,-0.1953,-0.1957,-0.2023,-0.2035,-0.2045,0,0,0,0,0,0,-0.14,-0.151,-0.1517,-0.1584,-0.1695,-0.1825,-0.1868,-0.19,-0.1939,-0.1915,-0.1897,-0.1895,-0.1916,-0.1919,-0.1897,-0.1945,-0.1904,-0.191,-0.1951,-0.1963,-0.1972,-0.1967,-0.1827,0,0,0,0,0,-0.1389,-0.1428,-0.1561,-0.1615,-0.1669,-0.1769,-0.1829,-0.1869,-0.1932,-0.1945,-0.1949,-0.1947,-0.1953,-0.1965,-0.1969,-0.2035,-0.2045,-0.2039,-0.2048,-0.2056,-0.2058,-0.2131,-0.2147,-0.1973,-0.1973,-0.1973,0,0,-0.1377,-0.1445,-0.1465,-0.1601,-0.1679,-0.1787,-0.1791,-0.1901,-0.1966,-0.1937,-0.1992,-0.1978,-0.1974,-0.2014,-0.2025,-0.2014,-0.2109,-0.2061,-0.2068,-0.2066,-0.2137,-0.2154,-0.2169,-0.1976,-0.1976,-0.1975,0,0,-0.1401,-0.1438,-0.1488,-0.159,-0.1727,-0.1802,-0.1836,-0.1969,-0.199,-0.208,-0.2039,-0.2056,-0.2092,-0.2092,-0.2094,-0.2173,-0.2143,-0.2152,-0.2213,-0.2285,-0.23,-0.2313,-0.2338,-0.2353,-0.2172,-0.2172,-0.2172,0,-0.1379,-0.146,-0.1533,-0.1633,-0.1717,-0.1807,-0.1909,-0.1977,-0.2097,-0.2134,-0.2093,-0.216,-0.2132,-0.2196,-0.2184,-0.2193,-0.221,-0.217,-0.2298,-0.2311,-0.2323,-0.2346,-0.2361,-0.2176,-0.2175,-0.2175,-0.2175,0,-0.1462,-0.1528,-0.1582,-0.1712,-0.1817,-0.1924,-0.2046,-0.2122,-0.215,-0.2214,-0.2279,-0.2274,-0.2309,-0.2294,-0.2249,-0.232,-0.2293,-0.2289,-0.2269,-0.2346,-0.2364,-0.2378,-0.2182,-0.218,-0.2179,-0.2178,0,0,-0.1404,-0.1591,-0.1606,-0.1676,-0.1865,-0.1965,-0.2086,-0.223,-0.231,-0.2373,-0.2464,-0.2451,-0.2442,-0.2442,-0.2407,-0.2449,-0.2513,-0.2392,-0.2393,-0.2414,-0.2642,-0.2395,-0.2386,-0.2534,-0.2537,-0.254,-0.2615,0,-0.1439,-0.1584,-0.1694,-0.1848,-0.1936,-0.2077,-0.2192,-0.2329,-0.2414,-0.2521,-0.2538,-0.2589,-0.2504,-0.2507,-0.2541,-0.2513,-0.2557,-0.2491,-0.2566,-0.2567,-0.2338,-0.2397,-0.2213,-0.2244,-0.263,-0.2632,-0.2634,0,-0.1483,-0.157,-0.1696,-0.1903,-0.1961,-0.2064,-0.2266,-0.2393,-0.2567,-0.263,-0.2711,-0.2728,-0.2769,-0.2689,-0.2736,-0.2695,-0.2662,-0.2651,-0.2655,-0.2406,-0.2347,-0.2233,-0.2256,-0.2252,-0.2656,-0.2655,-0.2653,0,-0.1375,-0.1584,-0.1659,-0.1734,-0.1974,-0.2053,-0.2188,-0.2396,-0.2505,-0.2684,-0.2755,-0.2856,-0.2861,-0.2892,-0.2797,-0.2792,-0.2834,-0.2849,-0.262,-0.2603,-0.2447,-0.2407,-0.2468,-0.291,-0.291,-0.291,-0.291,0,-0.1364,-0.1438,-0.16,-0.1647,-0.1772,-0.1977,-0.2133,-0.2293,-0.2505,-0.2607,-0.2763,-0.2812,-0.2904,-0.2919,-0.2872,-0.2743,-0.2903,-0.2626,-0.261,-0.246,-0.2423,-0.2407,-0.2444,-0.2913,-0.2912,-0.2911,-0.2911,0,-0.1241,-0.1349,-0.1444,-0.1644,-0.1712,-0.1792,-0.2066,-0.218,-0.24,-0.2534,-0.258,-0.2781,-0.2766,-0.2817,-0.2846,-0.2782,-0.2663,-0.2651,-0.2424,-0.2374,-0.2122,-0.2167,-0.2191,-0.214,-0.2459,-0.2453,-0.2449,0,-0.1203,-0.1213,-0.1372,-0.1415,-0.1494,-0.1651,-0.1764,-0.2058,-0.2169,-0.2455,-0.2473,-0.2569,-0.2512,-0.2491,-0.2428,-0.2357,-0.2416,-0.2186,-0.2132,-0.2067,-0.2114,-0.2172,-0.2136,-0.1984,-0.1976,-0.1969,-0.1964,0,-0.1094,-0.1111,-0.1171,-0.1242,-0.1329,-0.1462,-0.1629,-0.1709,-0.2016,-0.2128,-0.2204,-0.2195,-0.2155,-0.1993,-0.1929,-0.188,-0.2104,-0.2037,-0.2086,-0.1814,-0.178,-0.1733,-0.1962,-0.1904,-0.191,-0.1915,-0.1918,-0.192,-0.0981,-0.0963,-0.1007,-0.1074,-0.1164,-0.1231,-0.1265,-0.142,-0.1541,-0.1641,-0.1781,-0.1662,-0.1685,-0.1521,-0.1497,-0.1432,-0.1576,-0.1428,-0.1516,-0.1602,-0.146,-0.1486,-0.1318,-0.132,-0.1322,-0.1324,-0.1326,0,-0.0862,-0.0837,-0.0862,-0.0914,-0.0931,-0.1044,-0.1148,-0.1132,-0.1134,-0.1193,-0.1179,-0.1056,-0.0968,-0.103,-0.1029,-0.0985,-0.1048,-0.1019,-0.1144,-0.1154,-0.1273,-0.1149,-0.0795,-0.0795,-0.0795,-0.0795,-0.0795,-0.0795,-0.0798,-0.0735,-0.0732,-0.0677,-0.0704,-0.0659,-0.0659,-0.062,-0.0617,-0.0488,-0.0378,-0.0343,-0.0546,-0.0832,-0.088,-0.0846,-0.0938,-0.084,-0.0983,-0.1135,-0.1184,-0.1231,-0.1125,-0.0772,-0.0772,-0.0791,-0.0792,-0.0792]},{"header":{"parameterUnit":"m.s-1","parameterCategory":2,"la1":30.2991,"la2":30.254,"lo1":-89.0895,"lo2":-89.0444,"dy":0.0017,"dx":0.0017,"nx":28,"ny":28,"refTime":"2023-10-20T09:00:00:Z","depth":"0","parameterNumber":3,"parameterNumberName":"V-component_of_CURRENTS"},"data":[0,0,0,0,0,0,0,0,0,0,0,0,0,0,0,0,0,0,0,0,0,0,0,0,0,0,0,0,0,0,0,0,0,0,0,0,0,0,0,0,0,0,0,0,0,0,0,0,0,0,0,0,0,0,0,0,0,0,-0.0756,-0.0754,0,-0.0516,-0.0513,-0.051,-0.0379,-0.0379,-0.0378,-0.0378,-0.0186,-0.0181,-0.0176,0,0,0,0,0,0,0,0,0,0,0,0,0,-0.0898,-0.0897,-0.0757,-0.0754,-0.0751,-0.0516,-0.0513,-0.0509,-0.0379,-0.0379,-0.0378,-0.0378,-0.0187,-0.0182,-0.0176,0,0,0,0,0,0,0,0,0,0,0,0,0,-0.0764,-0.0897,-0.0757,-0.0659,-0.0648,-0.0517,-0.0513,-0.0509,-0.0379,-0.0379,-0.0378,-0.0378,-0.0189,-0.0182,-0.0175,-0.0134,0,0,-0.0152,-0.0149,0,0,0,0,0,0,0,0,-0.0772,-0.0759,-0.0676,-0.0665,-0.0653,-0.0479,-0.0492,-0.0386,-0.0379,-0.0479,-0.0378,-0.0378,-0.029,-0.0274,-0.0226,-0.0125,-0.0117,-0.0151,-0.0147,-0.0144,-0.0142,0,0,0,0,0,0,0,-0.0782,-0.0767,-0.0659,-0.0673,-0.0659,-0.0556,-0.0539,-0.047,-0.0388,-0.047,-0.0461,-0.0437,-0.0283,-0.0233,-0.0221,-0.0114,-0.0152,-0.0145,-0.014,-0.0137,0.01,0.0102,0,0,0,0,0,0,-0.0826,-0.0777,-0.0667,-0.0652,-0.0715,-0.0555,-0.0535,-0.0533,-0.0388,-0.0365,-0.0437,-0.0431,-0.0246,-0.023,-0.0214,-0.0132,-0.0144,-0.0137,-0.0132,0.0098,0.01,0.0102,0,0,0,0,0,0,-0.083,-0.0819,-0.0677,-0.0709,-0.0684,-0.0555,-0.0552,-0.0529,-0.0474,-0.0362,-0.034,-0.0407,-0.0245,-0.0224,-0.0136,-0.0125,-0.0133,-0.0127,0.0096,0.0099,0.0101,0.0015,0,0,0,0,0,0,-0.0836,-0.0823,-0.0833,-0.0713,-0.0684,-0.0605,-0.0552,-0.0524,-0.0461,-0.0451,-0.0329,-0.0311,-0.0244,-0.0147,-0.0129,-0.0114,-0.0121,0.0093,0.0097,0.01,0.0016,0.0015,0.0014,0,0,0,0,0,-0.0842,-0.0869,-0.0835,-0.0821,-0.0704,-0.0605,-0.058,-0.0484,-0.046,-0.0435,-0.0345,-0.0315,-0.0112,-0.014,-0.0118,-0.0102,0.0092,0.0096,0.01,0.0016,0.0015,0.0014,0,0,0,0,0,0,-0.0932,-0.0854,-0.0815,-0.0817,-0.0717,-0.0583,-0.0557,-0.0491,-0.0397,-0.0394,-0.0293,-0.0267,-0.0185,-0.0125,-0.0159,-0.0018,-0.0004,0.0005,-0.0075,-0.0075,-0.0076,-0.0118,-0.0115,0,0,0,0,0,-0.0959,-0.0958,-0.0849,-0.0842,-0.0807,-0.0682,-0.0631,-0.0563,-0.0466,-0.0424,-0.0335,-0.0239,-0.0149,-0.0102,-0.0017,0.0054,0.0086,0.0084,0.0083,0.0081,0.0066,0.0119,0.0119,0.0116,0.0116,0.0116,0,0,-0.0985,-0.0945,-0.094,-0.086,-0.0782,-0.0723,-0.065,-0.0582,-0.0525,-0.0421,-0.0331,-0.0245,-0.013,-0.0043,-0.0001,0.0006,0.0104,0.0086,0.0083,0.0069,0.0123,0.0122,0.0122,0.0119,0.0118,0.0118,0,0,-0.1036,-0.1009,-0.1017,-0.0943,-0.0842,-0.0762,-0.0749,-0.0618,-0.0557,-0.0461,-0.0367,-0.0274,-0.0141,-0.0047,0.0013,0.0059,0.0093,0.0088,0.005,0.0102,0.0101,0.01,0.0144,0.0148,0.009,0.009,0.009,0,-0.1067,-0.1063,-0.0996,-0.0967,-0.0908,-0.079,-0.0753,-0.0671,-0.0522,-0.0479,-0.045,-0.024,-0.0142,-0.0029,-0.0,0.0052,0.0078,0.0036,0.0094,0.0095,0.0096,0.014,0.0146,0.0086,0.0087,0.0087,0.0087,0,-0.1105,-0.1086,-0.1082,-0.1011,-0.094,-0.0892,-0.077,-0.0708,-0.0632,-0.0542,-0.0428,-0.0289,-0.017,-0.0112,-0.0039,0.0034,0.0049,0.0077,0.0078,0.0089,0.0138,0.0145,0.0081,0.0082,0.0083,0.0084,0,0,-0.1192,-0.1128,-0.1119,-0.1085,-0.0959,-0.0901,-0.0832,-0.0724,-0.0692,-0.0557,-0.0499,-0.032,-0.0258,-0.0184,-0.0077,-0.0017,0.0032,0.0025,0.003,0.0035,0.013,0.0219,0.0236,0.0055,0.0056,0.0056,0.0159,0,-0.1226,-0.1217,-0.1157,-0.1098,-0.1067,-0.0948,-0.09,-0.079,-0.0695,-0.0615,-0.0474,-0.0378,-0.0281,-0.023,-0.0152,-0.0006,0.0047,0.0001,0.0147,0.0152,0.0202,0.0246,0.0291,0.0393,0.0166,0.0168,0.0169,0,-0.1258,-0.125,-0.1232,-0.1153,-0.1131,-0.108,-0.098,-0.0913,-0.0786,-0.0723,-0.061,-0.0502,-0.0354,-0.0298,-0.0083,-0.0124,-0.0013,0.0086,0.0092,0.0206,0.0255,0.0351,0.0415,0.055,0.018,0.0179,0.0178,0,-0.1331,-0.1279,-0.1277,-0.1239,-0.1151,-0.1122,-0.1065,-0.0951,-0.0911,-0.0785,-0.0755,-0.058,-0.0467,-0.0332,-0.008,-0.0103,0.014,0.0134,0.0312,0.0319,0.0404,0.0418,0.0588,0.0246,0.0246,0.0246,0.0245,0,-0.1367,-0.1348,-0.1318,-0.1304,-0.1296,-0.1201,-0.1176,-0.1101,-0.1024,-0.0972,-0.0819,-0.0707,-0.0472,-0.0282,-0.0117,0.0152,0.0118,0.0311,0.0358,0.038,0.039,0.0551,0.0591,0.0249,0.0249,0.0248,0.0247,0,-0.1399,-0.1391,-0.1381,-0.1341,-0.1324,-0.1309,-0.1245,-0.1231,-0.116,-0.1089,-0.1057,-0.0791,-0.0511,-0.0279,0.001,0.0143,0.0457,0.0453,0.0471,0.0519,0.0769,0.0802,0.0993,0.1093,0.0618,0.0621,0.0623,0,-0.1403,-0.1414,-0.1417,-0.1415,-0.1386,-0.1364,-0.1355,-0.1295,-0.1282,-0.1099,-0.1069,-0.0772,-0.0469,-0.0011,0.0256,0.0539,0.0632,0.0709,0.0679,0.0805,0.0876,0.0873,0.0942,0.0756,0.0759,0.0762,0.0764,0,-0.1391,-0.1414,-0.1415,-0.1449,-0.1443,-0.1442,-0.1425,-0.1453,-0.1372,-0.1311,-0.104,-0.0761,-0.0233,0.0219,0.0571,0.0717,0.0806,0.0773,0.0903,0.1005,0.1013,0.1124,0.0656,0.0789,0.0786,0.0785,0.0783,0.0782,-0.1367,-0.1384,-0.1418,-0.1436,-0.1447,-0.1477,-0.1485,-0.1491,-0.1468,-0.1295,-0.0953,-0.042,0.0177,0.0743,0.0893,0.1132,0.1058,0.1188,0.1218,0.1203,0.1309,0.0898,0.1088,0.1088,0.1087,0.1086,0.1086,0,-0.1308,-0.1345,-0.138,-0.1407,-0.1419,-0.144,-0.1488,-0.1495,-0.1467,-0.1187,-0.0821,0.0191,0.0677,0.1108,0.1422,0.1561,0.156,0.1616,0.1611,0.1662,0.1309,0.1326,0.1578,0.1578,0.1578,0.1578,0.1578,0.1578,-0.127,-0.1297,-0.1339,-0.1353,-0.1369,-0.1385,-0.1413,-0.1436,-0.1293,-0.0771,-0.0117,0.0503,0.1243,0.1642,0.191,0.1924,0.2054,0.2018,0.2104,0.1842,0.1803,0.1766,0.1795,0.214,0.2141,0.2444,0.2447,0.2449]}],[{"header":{"parameterUnit":"m.s-1","parameterCategory":2,"la1":30.2991,"la2":30.254,"lo1":-89.0895,"lo2":-89.0444,"dy":0.0017,"dx":0.0017,"nx":28,"ny":28,"refTime":"2023-10-20T09:00:00:Z","depth":"2","parameterNumber":2,"parameterNumberName":"U-component_of_CURRENTS"},"data":[0,0,0,0,0,0,0,0,0,0,0,0,0,0,0,0,0,0,0,0,0,0,0,0,0,0,0,0,0,0,0,0,0,0,0,0,0,0,0,0,0,0,0,0,0,0,0,0,0,0,0,0,0,0,0,0,0,0,-0.3166,-0.3166,0,-0.3057,-0.3055,-0.3054,-0.2973,-0.2972,-0.2972,-0.2972,-0.2834,-0.2831,-0.2827,0,0,0,0,0,0,0,0,0,0,0,0,0,-0.3168,-0.3169,-0.3167,-0.3166,-0.3165,-0.3057,-0.3055,-0.3054,-0.2973,-0.2972,-0.2972,-0.2972,-0.2835,-0.2831,-0.2827,0,0,0,0,0,0,0,0,0,0,0,0,0,-0.3121,-0.317,-0.3167,-0.3114,-0.3109,-0.3058,-0.3055,-0.3053,-0.2973,-0.2972,-0.2972,-0.2971,-0.2836,-0.2831,-0.2826,-0.2806,0,0,-0.2811,-0.2809,0,0,0,0,0,0,0,0,-0.3124,-0.312,-0.3123,-0.3118,-0.3112,-0.3032,-0.3006,-0.297,-0.2973,-0.302,-0.2972,-0.2971,-0.29,-0.289,-0.2865,-0.2799,-0.2793,-0.2811,-0.2807,-0.2805,-0.2804,0,0,0,0,0,0,0,-0.3127,-0.3124,-0.3119,-0.3122,-0.3115,-0.305,-0.3043,-0.2998,-0.2961,-0.3016,-0.3011,-0.3005,-0.2896,-0.287,-0.2861,-0.2791,-0.2811,-0.2806,-0.2803,-0.2801,-0.274,-0.2741,0,0,0,0,0,0,-0.3157,-0.3128,-0.3123,-0.3116,-0.3121,-0.3051,-0.3043,-0.3054,-0.2962,-0.2948,-0.3006,-0.3002,-0.2879,-0.2867,-0.2856,-0.2852,-0.2805,-0.2801,-0.2798,-0.2738,-0.274,-0.2741,0,0,0,0,0,0,-0.3158,-0.3158,-0.3127,-0.3121,-0.3113,-0.3053,-0.3065,-0.3053,-0.3019,-0.2955,-0.294,-0.2985,-0.2878,-0.2863,-0.2821,-0.2845,-0.2798,-0.2794,-0.2737,-0.2739,-0.2741,-0.2827,0,0,0,0,0,0,-0.3159,-0.316,-0.3169,-0.3124,-0.3115,-0.311,-0.3066,-0.3051,-0.3019,-0.3013,-0.2933,-0.292,-0.2877,-0.2829,-0.2816,-0.2837,-0.279,-0.2735,-0.2738,-0.274,-0.2822,-0.2831,-0.2839,0,0,0,0,0,-0.3159,-0.3176,-0.3171,-0.3169,-0.3134,-0.3111,-0.31,-0.3051,-0.3019,-0.3015,-0.2959,-0.2922,-0.2837,-0.2825,-0.281,-0.283,-0.2734,-0.2737,-0.274,-0.2818,-0.283,-0.2839,0,0,0,0,0,0,-0.3171,-0.3168,-0.3161,-0.3174,-0.3154,-0.3099,-0.3082,-0.3052,-0.3002,-0.2988,-0.2923,-0.2906,-0.288,-0.2846,-0.2834,-0.2824,-0.2786,-0.2786,-0.2851,-0.2861,-0.2869,-0.2874,-0.2786,0,0,0,0,0,-0.3185,-0.32,-0.3183,-0.319,-0.3182,-0.3131,-0.3111,-0.3085,-0.304,-0.3015,-0.296,-0.2913,-0.2883,-0.2863,-0.2824,-0.2809,-0.2768,-0.2819,-0.2828,-0.2835,-0.2831,-0.2818,-0.2825,-0.2752,-0.2752,-0.2752,0,0,-0.319,-0.319,-0.3197,-0.3194,-0.3164,-0.3168,-0.3116,-0.3093,-0.3096,-0.3009,-0.2978,-0.293,-0.2884,-0.287,-0.2858,-0.2843,-0.2831,-0.2839,-0.2846,-0.2837,-0.2822,-0.2829,-0.2835,-0.2754,-0.2753,-0.2753,0,0,-0.3208,-0.3208,-0.3227,-0.3221,-0.32,-0.3181,-0.3181,-0.3134,-0.3111,-0.3085,-0.3031,-0.2996,-0.294,-0.2916,-0.2899,-0.2932,-0.2872,-0.2929,-0.2978,-0.2966,-0.2972,-0.2976,-0.2914,-0.2913,-0.2941,-0.2941,-0.2941,0,-0.3211,-0.3237,-0.3225,-0.3239,-0.3234,-0.3196,-0.3208,-0.3191,-0.3136,-0.3124,-0.309,-0.3018,-0.2966,-0.2967,-0.2973,-0.295,-0.2917,-0.2941,-0.2977,-0.2981,-0.2984,-0.2919,-0.2916,-0.2946,-0.2945,-0.2945,-0.2944,0,-0.3242,-0.3263,-0.3266,-0.3285,-0.3285,-0.3282,-0.3274,-0.3262,-0.3227,-0.3205,-0.3182,-0.3115,-0.307,-0.3065,-0.3018,-0.3028,-0.2986,-0.2984,-0.295,-0.2996,-0.2925,-0.292,-0.2952,-0.295,-0.2949,-0.2948,0,0,-0.3235,-0.3283,-0.3284,-0.3291,-0.3305,-0.3297,-0.3326,-0.3328,-0.3317,-0.3292,-0.3278,-0.3237,-0.3186,-0.3163,-0.3115,-0.3104,-0.3076,-0.3053,-0.3051,-0.2988,-0.3014,-0.2824,-0.2799,-0.3087,-0.3087,-0.3087,-0.2947,0,-0.3252,-0.3291,-0.3324,-0.3349,-0.3349,-0.3357,-0.3373,-0.3376,-0.3357,-0.3333,-0.3309,-0.3273,-0.3235,-0.3197,-0.3187,-0.3097,-0.3071,-0.3111,-0.2979,-0.2974,-0.2799,-0.2791,-0.2601,-0.2447,-0.2942,-0.2941,-0.2941,0,-0.3254,-0.3277,-0.3318,-0.3347,-0.335,-0.3377,-0.3378,-0.3394,-0.3392,-0.3372,-0.3367,-0.3328,-0.3302,-0.3258,-0.3168,-0.3196,-0.3104,-0.3045,-0.3039,-0.2827,-0.2776,-0.2485,-0.2419,-0.2932,-0.2933,-0.2933,-0.2934,0,-0.3198,-0.3261,-0.3292,-0.3302,-0.3344,-0.3366,-0.3388,-0.3397,-0.3374,-0.34,-0.3346,-0.3365,-0.3267,-0.3261,-0.3083,-0.3147,-0.2939,-0.3021,-0.277,-0.2754,-0.2544,-0.2508,-0.2954,-0.2954,-0.2955,-0.2955,-0.2955,0,-0.3162,-0.3187,-0.3268,-0.3271,-0.329,-0.3333,-0.3331,-0.3363,-0.3352,-0.3251,-0.3345,-0.3218,-0.3252,-0.3118,-0.3079,-0.2844,-0.2928,-0.2752,-0.2705,-0.2564,-0.2534,-0.2926,-0.2925,-0.295,-0.2951,-0.2952,-0.2953,0,-0.3089,-0.3144,-0.3182,-0.3248,-0.3261,-0.3276,-0.3287,-0.3202,-0.3268,-0.3136,-0.3132,-0.3072,-0.2906,-0.2883,-0.2767,-0.2723,-0.2617,-0.25,-0.2293,-0.2224,-0.2467,-0.2472,-0.2316,-0.2308,-0.2301,-0.2296,-0.2291,0,-0.306,-0.3072,-0.3157,-0.3115,-0.3147,-0.3161,-0.3068,-0.3144,-0.3004,-0.2965,-0.2796,-0.2703,-0.2504,-0.2312,-0.2234,-0.2152,-0.2295,-0.193,-0.2043,-0.2431,-0.2402,-0.2418,-0.2432,-0.1798,-0.179,-0.1783,-0.1778,0,-0.2981,-0.3029,-0.3026,-0.2977,-0.2905,-0.2817,-0.2704,-0.2631,-0.2591,-0.2524,-0.2317,-0.2246,-0.2026,-0.1829,-0.1716,-0.1673,-0.1975,-0.1787,-0.2216,-0.1983,-0.1929,-0.1906,-0.1939,-0.1717,-0.1723,-0.1727,-0.1731,-0.1733,-0.2891,-0.2884,-0.2849,-0.2777,-0.2663,-0.2423,-0.2297,-0.2137,-0.1995,-0.1831,-0.1843,-0.1692,-0.1658,-0.1406,-0.1306,-0.1283,-0.1466,-0.1494,-0.1522,-0.1555,-0.1514,-0.1451,-0.1138,-0.1141,-0.1143,-0.1145,-0.1147,0,-0.2713,-0.2682,-0.2608,-0.2463,-0.22,-0.2233,-0.1954,-0.1778,-0.155,-0.1442,-0.1338,-0.1172,-0.1021,-0.1036,-0.0885,-0.088,-0.0961,-0.0884,-0.1006,-0.1062,-0.1113,-0.1059,-0.0557,-0.0556,-0.0555,-0.0554,0,0,-0.2592,-0.2457,-0.2426,-0.2009,-0.188,-0.1533,-0.1359,-0.119,-0.1074,-0.0912,-0.0851,-0.0908,-0.0943,-0.0736,-0.0696,-0.0593,-0.0834,-0.0563,-0.1022,-0.1215,-0.1265,-0.1431,-0.1402,0,0,0,0,0]},{"header":{"parameterUnit":"m.s-1","parameterCategory":2,"la1":30.2991,"la2":30.254,"lo1":-89.0895,"lo2":-89.0444,"dy":0.0017,"dx":0.0017,"nx":28,"ny":28,"refTime":"2023-10-20T09:00:00:Z","depth":"2","parameterNumber":3,"parameterNumberName":"V-component_of_CURRENTS"},"data":[0,0,0,0,0,0,0,0,0,0,0,0,0,0,0,0,0,0,0,0,0,0,0,0,0,0,0,0,0,0,0,0,0,0,0,0,0,0,0,0,0,0,0,0,0,0,0,0,0,0,0,0,0,0,0,0,0,0,0.0282,0.0283,0,0.0425,0.0427,0.0429,0.0471,0.047,0.0469,0.0468,0.0525,0.0528,0.053,0,0,0,0,0,0,0,0,0,0,0,0,0,0.0171,0.0172,0.0282,0.0283,0.0285,0.0425,0.0427,0.043,0.0471,0.047,0.0468,0.0467,0.0525,0.0528,0.0531,0,0,0,0,0,0,0,0,0,0,0,0,0,0.026,0.0172,0.0281,0.032,0.0325,0.0425,0.0427,0.043,0.0471,0.047,0.0468,0.0467,0.0524,0.0527,0.0531,0.0586,0,0,0.0543,0.0544,0,0,0,0,0,0,0,0,0.0254,0.0264,0.0313,0.0317,0.0323,0.0426,0.0409,0.0477,0.0472,0.0419,0.0468,0.0466,0.0483,0.049,0.0527,0.0589,0.0591,0.0543,0.0545,0.0547,0.0548,0,0,0,0,0,0,0,0.0248,0.0259,0.0342,0.0314,0.0321,0.0374,0.0384,0.0424,0.0459,0.0423,0.0426,0.0438,0.0486,0.0523,0.0528,0.0592,0.0543,0.0546,0.0549,0.055,0.0626,0.0626,0,0,0,0,0,0,0.0219,0.0253,0.0337,0.0346,0.0281,0.0376,0.0388,0.0397,0.0461,0.0469,0.0439,0.0439,0.0517,0.0523,0.053,0.0533,0.0547,0.055,0.0553,0.0626,0.0626,0.0626,0,0,0,0,0,0,0.0217,0.0226,0.0331,0.03,0.0317,0.0378,0.0389,0.04,0.0413,0.0473,0.0479,0.0436,0.0516,0.0525,0.054,0.0537,0.0552,0.0555,0.0626,0.0626,0.0626,0.058,0,0,0,0,0,0,0.0213,0.0224,0.0207,0.0298,0.0317,0.0369,0.0391,0.0404,0.0423,0.0424,0.0473,0.0479,0.0516,0.0534,0.0544,0.0543,0.0558,0.0627,0.0626,0.0626,0.0582,0.0579,0.0575,0,0,0,0,0,0.0208,0.0193,0.0205,0.0215,0.0296,0.0369,0.0384,0.0426,0.0424,0.0431,0.0456,0.0476,0.0538,0.0538,0.0549,0.0549,0.0627,0.0626,0.0626,0.0584,0.0579,0.0576,0,0,0,0,0,0,0.0133,0.0198,0.0213,0.0216,0.0276,0.0374,0.0372,0.0411,0.0444,0.0424,0.0479,0.0487,0.0494,0.0529,0.0527,0.0568,0.0584,0.0586,0.0548,0.0544,0.0541,0.0532,0.0562,0,0,0,0,0,0.0109,0.011,0.0193,0.019,0.021,0.0287,0.0314,0.0349,0.0397,0.041,0.0444,0.0475,0.051,0.0529,0.0555,0.0589,0.0614,0.0593,0.059,0.0587,0.0586,0.0643,0.0645,0.0624,0.0624,0.0624,0,0,0.0078,0.0111,0.0111,0.0173,0.0214,0.0253,0.0299,0.0327,0.0359,0.0409,0.0427,0.0454,0.051,0.0538,0.0546,0.0564,0.0597,0.0586,0.0583,0.0585,0.0642,0.0645,0.0647,0.0623,0.0623,0.0623,0,0,0.0024,0.0043,0.0029,0.008,0.0134,0.0197,0.0197,0.0278,0.0303,0.0335,0.0375,0.0406,0.0449,0.051,0.0544,0.0542,0.0566,0.0535,0.0528,0.0583,0.0585,0.0588,0.0585,0.0587,0.0548,0.0548,0.0548,0,-0.0024,-0.0018,0.0038,0.0051,0.0083,0.0165,0.0179,0.0236,0.0309,0.0333,0.0317,0.0403,0.0445,0.0522,0.0517,0.0537,0.0544,0.054,0.0579,0.0583,0.0586,0.0583,0.0586,0.0546,0.0546,0.0547,0.0547,0,-0.0066,-0.0063,-0.0067,-0.0021,0.0027,0.0047,0.0141,0.0174,0.0201,0.0262,0.0303,0.0365,0.0418,0.0443,0.0479,0.0534,0.0519,0.0556,0.0589,0.0585,0.0581,0.0586,0.0543,0.0544,0.0544,0.0545,0,0,-0.0168,-0.0113,-0.0117,-0.0109,-0.0012,0.0021,0.0078,0.0162,0.0182,0.0243,0.0272,0.0355,0.0377,0.0417,0.0473,0.0536,0.0558,0.0547,0.0551,0.0541,0.0625,0.0614,0.0618,0.0597,0.0598,0.0599,0.0598,0,-0.0224,-0.0238,-0.0171,-0.016,-0.0154,-0.0045,0.0003,0.0089,0.0148,0.0193,0.0289,0.0315,0.0375,0.0374,0.0453,0.053,0.0573,0.0551,0.0632,0.0634,0.0625,0.0625,0.0616,0.0616,0.0603,0.0604,0.0605,0,-0.0284,-0.0283,-0.0306,-0.024,-0.0228,-0.0208,-0.0124,-0.0066,0.0053,0.0091,0.0167,0.0228,0.033,0.0357,0.0507,0.0481,0.0537,0.0602,0.0604,0.0618,0.0634,0.0626,0.0625,0.0613,0.0612,0.0611,0.0611,0,-0.0402,-0.0368,-0.0402,-0.0379,-0.0295,-0.0294,-0.0245,-0.0129,-0.0087,0.0005,0.0021,0.0162,0.0194,0.0319,0.0448,0.0466,0.0588,0.0636,0.068,0.0677,0.0699,0.0697,0.0724,0.0724,0.0724,0.0724,0.0724,0,-0.0477,-0.0503,-0.0481,-0.0501,-0.053,-0.0428,-0.0435,-0.0354,-0.026,-0.0212,-0.0072,-0.0018,0.0184,0.0289,0.0413,0.0547,0.0559,0.067,0.0689,0.0677,0.0674,0.0707,0.0705,0.0724,0.0724,0.0724,0.0724,0,-0.0597,-0.0583,-0.0624,-0.0597,-0.0599,-0.063,-0.057,-0.0535,-0.0456,-0.0396,-0.0379,-0.0172,-0.0014,0.0171,0.0368,0.0481,0.062,0.0655,0.0596,0.061,0.0675,0.067,0.0716,0.0716,0.0716,0.0716,0.0715,0,-0.0655,-0.0704,-0.0735,-0.0755,-0.0761,-0.0783,-0.0759,-0.0664,-0.0611,-0.0475,-0.0438,-0.0287,-0.012,0.0147,0.0369,0.0568,0.0593,0.064,0.0706,0.0666,0.068,0.0676,0.0672,0.0696,0.0695,0.0695,0.0695,0,-0.0765,-0.0802,-0.0831,-0.0886,-0.0905,-0.0887,-0.0862,-0.0858,-0.0716,-0.0647,-0.05,-0.0371,-0.0095,0.0178,0.0411,0.0527,0.0619,0.0643,0.0637,0.07,0.0648,0.0661,0.0658,0.0694,0.0694,0.0694,0.0694,0.0694,-0.0852,-0.0907,-0.0951,-0.0987,-0.0987,-0.0953,-0.0945,-0.0866,-0.0793,-0.063,-0.0542,-0.0304,-0.0078,0.0321,0.0473,0.0616,0.0637,0.0693,0.0694,0.0695,0.0693,0.0645,0.0685,0.0686,0.0686,0.0686,0.0686,0,-0.0913,-0.0969,-0.1015,-0.1039,-0.1004,-0.1001,-0.0948,-0.0881,-0.0776,-0.0603,-0.0448,-0.0182,0.0096,0.032,0.0568,0.0698,0.0699,0.0697,0.0698,0.0698,0.0699,0.0698,0.0692,0.0692,0.0692,0.0693,0,0,-0.0948,-0.1009,-0.1021,-0.1014,-0.1017,-0.0973,-0.0936,-0.0826,-0.0686,-0.0478,-0.0295,-0.0106,0.0161,0.0329,0.0486,0.0614,0.0616,0.0606,0.059,0.0574,0.0573,0.0686,0.0684,0,0,0,0,0]}],[{"header":{"parameterUnit":"m.s-1","parameterCategory":2,"la1":30.2991,"la2":30.254,"lo1":-89.0895,"lo2":-89.0444,"dy":0.0017,"dx":0.0017,"nx":28,"ny":28,"refTime":"2023-10-20T09:00:00:Z","depth":"4","parameterNumber":2,"parameterNumberName":"U-component_of_CURRENTS"},"data":[0,0,0,0,0,0,0,0,0,0,0,0,0,0,0,0,0,0,0,0,0,0,0,0,0,0,0,0,0,0,0,0,0,0,0,0,0,0,0,0,0,0,0,0,0,0,0,0,0,0,0,0,0,0,0,0,0,0,-0.1055,-0.1056,0,-0.1129,-0.113,-0.1131,-0.1198,-0.1199,-0.1199,-0.1199,-0.1304,-0.1306,-0.1308,0,0,0,0,0,0,0,0,0,0,0,0,0,-0.0956,-0.0958,-0.1055,-0.1056,-0.1056,-0.1128,-0.113,-0.1131,-0.1198,-0.1199,-0.1199,-0.12,-0.1303,-0.1306,-0.1309,0,0,0,0,0,0,0,0,0,0,0,0,0,-0.1015,-0.0958,-0.1055,-0.1095,-0.1099,-0.1128,-0.113,-0.1132,-0.1198,-0.1199,-0.1199,-0.12,-0.1302,-0.1306,-0.1309,-0.1319,0,0,-0.132,-0.1322,0,0,0,0,0,0,0,0,-0.1012,-0.1019,-0.1089,-0.1092,-0.1097,-0.1151,-0.1133,-0.1194,-0.1198,-0.1165,-0.1199,-0.12,-0.1252,-0.126,-0.1278,-0.1324,-0.1328,-0.132,-0.1323,-0.1324,-0.1325,0,0,0,0,0,0,0,-0.1008,-0.1016,-0.1089,-0.1089,-0.1094,-0.1103,-0.1113,-0.1145,-0.1208,-0.1168,-0.1172,-0.1173,-0.1255,-0.1275,-0.1281,-0.133,-0.132,-0.1323,-0.1326,-0.1327,-0.1493,-0.1496,0,0,0,0,0,0,-0.099,-0.1013,-0.1086,-0.109,-0.105,-0.1104,-0.1115,-0.1137,-0.1207,-0.1217,-0.1172,-0.1176,-0.1268,-0.1277,-0.1285,-0.1361,-0.1324,-0.1327,-0.1329,-0.1491,-0.1494,-0.1496,0,0,0,0,0,0,-0.0988,-0.0997,-0.1083,-0.1048,-0.1059,-0.1105,-0.1128,-0.1138,-0.1184,-0.1209,-0.1221,-0.1211,-0.1269,-0.128,-0.1344,-0.1363,-0.1329,-0.1332,-0.1489,-0.1492,-0.1495,-0.1475,0,0,0,0,0,0,-0.0986,-0.0996,-0.1023,-0.1048,-0.1061,-0.1124,-0.1128,-0.1138,-0.1179,-0.1186,-0.1246,-0.1255,-0.127,-0.1338,-0.1347,-0.1368,-0.1335,-0.1486,-0.149,-0.1494,-0.1473,-0.1477,-0.1481,0,0,0,0,0,-0.0982,-0.101,-0.1024,-0.1033,-0.1091,-0.1125,-0.1134,-0.1169,-0.1181,-0.1212,-0.1252,-0.1254,-0.1372,-0.1343,-0.1353,-0.1375,-0.1484,-0.1489,-0.1494,-0.1471,-0.1476,-0.1481,0,0,0,0,0,0,-0.0983,-0.102,-0.1036,-0.1076,-0.1108,-0.1135,-0.1163,-0.1183,-0.124,-0.1249,-0.1278,-0.129,-0.1355,-0.1378,-0.1345,-0.1441,-0.1431,-0.1438,-0.141,-0.1415,-0.1419,-0.1447,-0.1338,0,0,0,0,0,-0.0992,-0.1023,-0.1057,-0.1089,-0.1107,-0.114,-0.1163,-0.1185,-0.1224,-0.1251,-0.1294,-0.1341,-0.138,-0.1408,-0.1451,-0.1499,-0.1501,-0.1526,-0.153,-0.1532,-0.1567,-0.1571,-0.1577,-0.1513,-0.1513,-0.1513,0,0,-0.0991,-0.1021,-0.1035,-0.109,-0.1117,-0.1148,-0.1158,-0.1196,-0.1238,-0.1251,-0.1335,-0.1359,-0.1399,-0.1454,-0.1485,-0.1476,-0.1548,-0.1539,-0.154,-0.1574,-0.1576,-0.1582,-0.1587,-0.1517,-0.1516,-0.1515,0,0,-0.1005,-0.1043,-0.1075,-0.1105,-0.115,-0.1168,-0.1184,-0.1233,-0.1281,-0.1357,-0.1364,-0.1413,-0.1493,-0.1511,-0.1532,-0.1593,-0.157,-0.16,-0.1639,-0.164,-0.1645,-0.1649,-0.1625,-0.1628,-0.16,-0.16,-0.1599,0,-0.101,-0.1059,-0.1089,-0.1129,-0.1145,-0.1178,-0.1206,-0.1261,-0.133,-0.1363,-0.1397,-0.1498,-0.153,-0.1565,-0.1594,-0.1601,-0.1585,-0.1602,-0.1641,-0.1645,-0.165,-0.1625,-0.1628,-0.1599,-0.1599,-0.1599,-0.1599,0,-0.1041,-0.109,-0.111,-0.1168,-0.1188,-0.1221,-0.1271,-0.1332,-0.139,-0.1428,-0.1513,-0.1565,-0.1624,-0.1631,-0.1642,-0.1677,-0.1648,-0.1637,-0.1614,-0.1654,-0.1627,-0.1629,-0.1599,-0.1599,-0.1599,-0.1599,0,0,-0.1021,-0.1119,-0.1121,-0.1164,-0.121,-0.1233,-0.1301,-0.1363,-0.142,-0.1507,-0.1576,-0.1654,-0.1674,-0.1702,-0.17,-0.1715,-0.1723,-0.1696,-0.1696,-0.1649,-0.17,-0.1595,-0.1587,-0.1698,-0.1699,-0.17,-0.1654,0,-0.1042,-0.112,-0.1149,-0.1208,-0.125,-0.129,-0.1343,-0.1397,-0.1478,-0.1561,-0.1616,-0.1686,-0.1698,-0.1728,-0.1745,-0.1732,-0.1737,-0.1736,-0.1693,-0.1693,-0.1573,-0.159,-0.1705,-0.1656,-0.1657,-0.1657,-0.1657,0,-0.104,-0.111,-0.117,-0.125,-0.1267,-0.1307,-0.1383,-0.1437,-0.1532,-0.1598,-0.1666,-0.1712,-0.1759,-0.1776,-0.1782,-0.1771,-0.1758,-0.1745,-0.1742,-0.1665,-0.1595,-0.1622,-0.1662,-0.1662,-0.1662,-0.1661,-0.1661,0,-0.0988,-0.1101,-0.1154,-0.1182,-0.1283,-0.1331,-0.1373,-0.145,-0.1501,-0.162,-0.1677,-0.1729,-0.1778,-0.1777,-0.1793,-0.1779,-0.1788,-0.1753,-0.1641,-0.1632,-0.1746,-0.1743,-0.1772,-0.1772,-0.1772,-0.1772,-0.1772,0,-0.0969,-0.1017,-0.1161,-0.1196,-0.1261,-0.1324,-0.1391,-0.1453,-0.1545,-0.1585,-0.1689,-0.1738,-0.1788,-0.1808,-0.1795,-0.1728,-0.1787,-0.1662,-0.1622,-0.1735,-0.1732,-0.1745,-0.1742,-0.177,-0.1771,-0.1771,-0.1771,0,-0.0895,-0.0978,-0.1062,-0.1204,-0.1238,-0.1283,-0.1376,-0.1436,-0.1531,-0.1597,-0.1635,-0.1739,-0.1744,-0.1774,-0.1768,-0.1717,-0.1674,-0.1641,-0.1762,-0.1727,-0.1506,-0.1504,-0.1478,-0.1474,-0.147,-0.1468,-0.1465,0,-0.0867,-0.09,-0.1046,-0.1076,-0.1151,-0.1237,-0.128,-0.14,-0.1457,-0.1579,-0.1599,-0.1664,-0.1712,-0.161,-0.1651,-0.1594,-0.1586,-0.1558,-0.1543,-0.1517,-0.148,-0.1483,-0.1485,-0.146,-0.1459,-0.1458,-0.1458,0,-0.0775,-0.0823,-0.0872,-0.0983,-0.1052,-0.1144,-0.1233,-0.1265,-0.1393,-0.1501,-0.152,-0.1532,-0.1532,-0.1516,-0.1502,-0.1468,-0.157,-0.1523,-0.1529,-0.1514,-0.1495,-0.1463,-0.1469,-0.1446,-0.1448,-0.1449,-0.1449,0,-0.068,-0.0695,-0.0751,-0.0848,-0.0932,-0.1033,-0.1099,-0.1172,-0.1234,-0.1383,-0.1376,-0.144,-0.1507,-0.1451,-0.1436,-0.1396,-0.1357,-0.1317,-0.1333,-0.1346,-0.1328,-0.1286,-0.1146,0,0,0,0,0,-0.0595,-0.0585,-0.062,-0.0726,-0.0821,-0.0904,-0.105,-0.1132,-0.1274,-0.1243,-0.1305,-0.1299,-0.1279,-0.1315,-0.1237,-0.1362,-0.1362,-0.1269,-0.1324,-0.1383,-0.1396,-0.1389,0,0,0,0,0,0,-0.0511,-0.0513,-0.0562,-0.0592,-0.0671,-0.0791,-0.09,-0.1003,-0.0999,-0.1127,-0.1115,-0.1205,-0.1194,-0.1276,-0.1198,-0.1207,-0.1215,-0.1308,-0.1304,-0.1375,-0.1387,-0.1398,-0.1396,0,0,0,0,0]},{"header":{"parameterUnit":"m.s-1","parameterCategory":2,"la1":30.2991,"la2":30.254,"lo1":-89.0895,"lo2":-89.0444,"dy":0.0017,"dx":0.0017,"nx":28,"ny":28,"refTime":"2023-10-20T09:00:00:Z","depth":"4","parameterNumber":3,"parameterNumberName":"V-component_of_CURRENTS"},"data":[0,0,0,0,0,0,0,0,0,0,0,0,0,0,0,0,0,0,0,0,0,0,0,0,0,0,0,0,0,0,0,0,0,0,0,0,0,0,0,0,0,0,0,0,0,0,0,0,0,0,0,0,0,0,0,0,0,0,-0.0151,-0.015,0,-0.0115,-0.0115,-0.0114,-0.0071,-0.0071,-0.007,-0.007,-0.0073,-0.0074,-0.0074,0,0,0,0,0,0,0,0,0,0,0,0,0,-0.0156,-0.0156,-0.0151,-0.015,-0.015,-0.0115,-0.0115,-0.0114,-0.0071,-0.0071,-0.007,-0.007,-0.0073,-0.0074,-0.0074,0,0,0,0,0,0,0,0,0,0,0,0,0,-0.0139,-0.0156,-0.0151,-0.0126,-0.0123,-0.0115,-0.0115,-0.0114,-0.0071,-0.0071,-0.007,-0.0069,-0.0073,-0.0074,-0.0075,-0.0095,0,0,-0.0077,-0.0077,0,0,0,0,0,0,0,0,-0.014,-0.0138,-0.013,-0.0128,-0.0125,-0.0098,-0.0118,-0.011,-0.0072,-0.0089,-0.007,-0.0069,-0.0087,-0.0087,-0.0079,-0.0095,-0.0095,-0.0077,-0.0078,-0.0078,-0.0078,0,0,0,0,0,0,0,-0.0141,-0.0139,-0.0135,-0.013,-0.0127,-0.0108,-0.0105,-0.0116,-0.0092,-0.0088,-0.0085,-0.0084,-0.0086,-0.0078,-0.0078,-0.0095,-0.0077,-0.0078,-0.0078,-0.0079,-0.014,-0.0142,0,0,0,0,0,0,-0.0151,-0.0141,-0.0136,-0.0134,-0.0133,-0.0109,-0.0105,-0.0106,-0.0091,-0.0088,-0.0085,-0.0082,-0.0077,-0.0078,-0.0079,-0.0118,-0.0078,-0.0079,-0.0079,-0.0139,-0.0141,-0.0142,0,0,0,0,0,0,-0.0152,-0.0151,-0.0137,-0.0138,-0.0135,-0.011,-0.0111,-0.0106,-0.0095,-0.0089,-0.0086,-0.0079,-0.0076,-0.0077,-0.0094,-0.0117,-0.0079,-0.008,-0.0138,-0.014,-0.0141,-0.0187,0,0,0,0,0,0,-0.0152,-0.0152,-0.0153,-0.0139,-0.0135,-0.0142,-0.0112,-0.0106,-0.0097,-0.0093,-0.0084,-0.0083,-0.0076,-0.0093,-0.0095,-0.0118,-0.0081,-0.0137,-0.0139,-0.0141,-0.0184,-0.019,-0.0195,0,0,0,0,0,-0.0152,-0.0156,-0.0154,-0.0153,-0.0139,-0.0143,-0.0139,-0.0117,-0.0097,-0.0102,-0.0095,-0.0083,-0.0108,-0.0095,-0.0097,-0.012,-0.0136,-0.0138,-0.0141,-0.0182,-0.0189,-0.0195,0,0,0,0,0,0,-0.016,-0.0152,-0.0149,-0.0151,-0.0153,-0.0136,-0.0132,-0.0121,-0.0116,-0.0113,-0.0098,-0.0098,-0.0128,-0.0116,-0.0102,-0.0145,-0.012,-0.0123,-0.0151,-0.0158,-0.0163,-0.0103,-0.0081,0,0,0,0,0,-0.0165,-0.0171,-0.0162,-0.0172,-0.0165,-0.015,-0.0146,-0.014,-0.0135,-0.013,-0.012,-0.012,-0.0141,-0.0141,-0.0157,-0.0174,-0.0119,-0.0191,-0.0196,-0.0201,-0.0154,-0.0115,-0.0111,-0.015,-0.015,-0.015,0,0,-0.0175,-0.0172,-0.0176,-0.0175,-0.0166,-0.0172,-0.0145,-0.0148,-0.015,-0.0135,-0.0129,-0.0147,-0.0154,-0.0181,-0.0191,-0.017,-0.0165,-0.0204,-0.0208,-0.0157,-0.0117,-0.0112,-0.0108,-0.0152,-0.0152,-0.0152,0,0,-0.0199,-0.0189,-0.0198,-0.0201,-0.0201,-0.0192,-0.0196,-0.0182,-0.0166,-0.0174,-0.0176,-0.0183,-0.0203,-0.0203,-0.021,-0.0249,-0.0207,-0.0282,-0.0248,-0.0212,-0.0207,-0.0202,-0.0134,-0.0123,-0.0272,-0.0272,-0.0272,0,-0.0208,-0.0221,-0.0205,-0.0215,-0.0221,-0.0203,-0.0219,-0.0202,-0.02,-0.0185,-0.0176,-0.0187,-0.0199,-0.0217,-0.0232,-0.0257,-0.0223,-0.0226,-0.0216,-0.021,-0.0204,-0.0135,-0.0121,-0.0274,-0.0274,-0.0274,-0.0273,0,-0.0236,-0.025,-0.0254,-0.0261,-0.0267,-0.0281,-0.0264,-0.0251,-0.0229,-0.0212,-0.021,-0.021,-0.0201,-0.0233,-0.024,-0.0229,-0.0215,-0.024,-0.0192,-0.0202,-0.013,-0.0115,-0.0278,-0.0277,-0.0276,-0.0275,0,0,-0.025,-0.0269,-0.0273,-0.0287,-0.0294,-0.0302,-0.0293,-0.0277,-0.0255,-0.0234,-0.0197,-0.0223,-0.0199,-0.0201,-0.0222,-0.0183,-0.0128,-0.0189,-0.0186,-0.0106,-0.0025,-0.0057,-0.0043,-0.0165,-0.0163,-0.0161,0.0007,0,-0.0276,-0.031,-0.0313,-0.035,-0.0361,-0.0344,-0.034,-0.0325,-0.0288,-0.0244,-0.0206,-0.0198,-0.0198,-0.0203,-0.0161,-0.015,-0.009,-0.0168,-0.0037,-0.003,-0.0047,-0.0028,-0.0154,0.0019,0.0022,0.0025,0.0027,0,-0.03,-0.0319,-0.0363,-0.0386,-0.0387,-0.0406,-0.0382,-0.0379,-0.0313,-0.0277,-0.0223,-0.0191,-0.013,-0.0134,-0.0028,-0.0086,-0.0036,-0.0006,-0.0,0.0011,-0.0035,0.0032,0.0054,0.0052,0.005,0.0048,0.0047,0,-0.032,-0.0353,-0.0393,-0.0405,-0.0425,-0.0428,-0.0429,-0.0389,-0.0374,-0.029,-0.0253,-0.0171,-0.0129,-0.0046,0.0031,0.0001,0.0159,0.012,0.0158,0.0158,0.0159,0.0152,0.0229,0.0229,0.0228,0.0228,0.0227,0,-0.0348,-0.0374,-0.0404,-0.0428,-0.0458,-0.046,-0.047,-0.044,-0.0394,-0.0373,-0.0276,-0.0225,-0.0107,-0.0009,0.0063,0.0168,0.0193,0.0204,0.0203,0.0132,0.012,0.017,0.0161,0.0234,0.0233,0.0232,0.023,0,-0.037,-0.0392,-0.0434,-0.0464,-0.0476,-0.0497,-0.0513,-0.0505,-0.0455,-0.0412,-0.0384,-0.0251,-0.012,0.0008,0.015,0.0198,0.0299,0.0328,0.0285,0.0273,0.0279,0.0265,0.0416,0.0416,0.0416,0.0417,0.0417,0,-0.0384,-0.0414,-0.047,-0.0496,-0.0514,-0.0543,-0.0562,-0.054,-0.0529,-0.0433,-0.0408,-0.0261,-0.0164,0.0054,0.0162,0.0342,0.0335,0.0409,0.0328,0.0316,0.0301,0.0286,0.0273,0.0417,0.0418,0.0418,0.0418,0,-0.0399,-0.0427,-0.0457,-0.0521,-0.0556,-0.0598,-0.0616,-0.0612,-0.0573,-0.0526,-0.0405,-0.027,-0.0115,0.005,0.0192,0.0301,0.0371,0.0412,0.0411,0.0336,0.032,0.0301,0.0287,0.0419,0.0419,0.0419,0.0418,0,-0.0403,-0.0432,-0.0478,-0.0529,-0.0585,-0.063,-0.0642,-0.0615,-0.0598,-0.0491,-0.0455,-0.027,-0.0159,0.0029,0.0151,0.0269,0.0282,0.0299,0.0305,0.0305,0.0196,0.0153,0.0234,0,0,0,0,0,-0.0393,-0.0425,-0.048,-0.0541,-0.0601,-0.0632,-0.0665,-0.0665,-0.0628,-0.0549,-0.0499,-0.0351,-0.0133,-0.0029,0.0087,0.013,0.0283,0.0265,0.03,0.0425,0.0423,0.0307,0,0,0,0,0,0,-0.0386,-0.043,-0.0468,-0.0533,-0.0583,-0.0645,-0.0671,-0.0651,-0.0601,-0.0541,-0.0419,-0.0338,-0.0125,-0.019,0.009,0.0127,0.0159,0.0375,0.0377,0.0425,0.0424,0.0423,0.0304,0,0,0,0,0]}]]